Location: Newark
(43.4850°N, 107.4500°W)
Time: 16:25:38
(UTC+00:00)

ISS - Visible Passes

Search period start: 22 November 2019 00:00
Search period end: 02 December 2019 00:00
Orbit: 412 x 421 km, 51.6° (Epoch: 23 November)

Date Brightness Start Highest point End Pass type
(mag) Time Alt. Az. Time Alt. Az. Time Alt. Az.
22 Nov -1.7 01:59:06 10° SW 02:00:41 26° SW 02:00:41 26° SW visible
23 Nov -3.3 01:10:54 10° SSW 01:14:05 42° SE 01:14:30 40° ESE visible
24 Nov -2.4 00:22:57 10° SSW 00:25:47 25° SE 00:28:13 12° E visible
24 Nov -1.9 01:59:06 10° WSW 02:01:08 31° W 02:01:08 31° W visible
25 Nov -3.7 01:10:32 10° WSW 01:13:53 74° NNW 01:14:46 45° NE visible
26 Nov -3.7 00:22:07 10° SW 00:25:26 68° SE 00:28:20 13° ENE visible
26 Nov -1.5 01:59:27 10° WNW 02:01:15 22° NW 02:01:15 22° NW visible
27 Nov -2.7 01:10:40 10° W 01:13:48 36° NNW 01:14:46 29° NNE visible
28 Nov -3.2 00:21:59 10° WSW 00:25:15 51° NNW 00:28:14 12° NE visible
28 Nov -1.2 01:59:53 10° WNW 02:01:08 17° NW 02:01:08 17° NW visible
29 Nov -2.1 01:11:04 10° WNW 01:13:51 24° NNW 01:14:34 22° N visible
30 Nov -2.4 00:22:13 10° W 00:25:11 29° NNW 00:27:58 11° NE visible
30 Nov -1.0 02:00:06 10° NW 02:00:52 14° NW 02:00:52 14° NW visible
01 Dec -2.0 01:11:23 10° NW 01:13:56 20° N 01:14:16 20° N visible
